Location: North Smoke Tower Site
(30.5430°N, 82.3390°W)
Time: 16:19:05
(UTC-04:00)

Cosmos 1980 Rocket - Visible Passes

Search period start: 18 August 2017 00:00
Search period end: 28 August 2017 00:00
Orbit: 831 x 848 km, 71.0° (Epoch: 18 August)

Date Brightness Start Highest point End Pass type
(mag) Time Alt. Az. Time Alt. Az. Time Alt. Az.
18 Aug 4.7 06:07:04 10° N 06:11:39 25° ENE 06:16:14 10° ESE visible
18 Aug 2.9 20:51:12 10° SSW 20:56:43 60° WNW 21:02:15 10° NNE visible
19 Aug 4.8 05:51:29 10° N 05:55:57 24° ENE 06:00:23 10° ESE visible
19 Aug 2.7 20:35:29 10° SSW 20:41:02 64° WNW 20:46:36 10° NNE visible
20 Aug 4.8 05:35:56 10° NNE 05:40:14 22° ENE 05:44:32 10° ESE visible
21 Aug 4.9 05:20:24 10° NNE 05:24:31 21° ENE 05:28:40 10° ESE visible
22 Aug 4.9 05:04:51 10° NNE 05:08:49 19° ENE 05:12:45 10° ESE visible
23 Aug 4.9 04:49:21 10° NNE 04:53:06 18° ENE 04:56:51 10° ESE visible
23 Aug 2.4 06:31:56 10° NNW 06:37:19 49° WSW 06:42:42 10° S visible
24 Aug 4.9 04:33:51 10° NNE 04:37:23 17° ENE 04:40:55 10° E visible
24 Aug 2.3 06:16:13 10° NNW 06:21:39 53° WSW 06:27:06 10° S visible
25 Aug 5.0 04:18:23 10° NNE 04:21:41 16° ENE 04:24:57 10° E visible
25 Aug 2.2 06:00:30 10° NNW 06:06:00 57° WSW 06:11:29 10° S visible
25 Aug 5.6 20:50:10 10° WNW 20:51:34 11° NW 20:53:00 10° NW visible
26 Aug 5.0 04:02:57 10° NNE 04:05:57 14° ENE 04:08:57 10° E visible
26 Aug 2.1 05:44:48 10° NNW 05:50:20 62° WSW 05:55:52 10° S visible
26 Aug 5.5 20:33:51 10° WNW 20:35:51 12° WNW 20:37:51 10° NW visible
27 Aug 5.0 03:47:32 10° NNE 03:50:14 13° ENE 03:52:54 10° E visible
27 Aug 2.1 05:29:06 10° NNW 05:34:40 67° WSW 05:40:14 10° S visible
27 Aug 5.4 20:17:41 10° W 20:20:08 13° WNW 20:22:34 10° NNW visible
